This is the latest recevied weather packets stored in our database for station/object DL4MGC-10. If no packets are shown the sender has not sent any weather packets the latest 10 day(s).
| Time | Temp. | Humidity | Pressure | Rain* | Wind** | Luminosity | Snow |
|---|---|---|---|---|---|---|---|
| 1777644541 | 21.67° C | 36% | 1024.3 hPa | - | - | - | - |
| 1777643641 | 21.11° C | 35% | 1024.3 hPa | - | - | - | - |
| 1777642741 | 21.11° C | 35% | 1024.5 hPa | - | - | - | - |
| 1777641841 | 21.11° C | 35% | 1024.6 hPa | - | - | - | - |
| 1777640941 | 20.56° C | 36% | 1024.6 hPa | - | - | - | - |
| 1777640041 | 21.67° C | 36% | 1024.9 hPa | - | - | - | - |
| 1777639141 | 22.22° C | 36% | 1025 hPa | - | - | - | - |
| 1777638241 | 20.56° C | 36% | 1025.1 hPa | - | - | - | - |
| 1777637341 | 20.56° C | 36% | 1025.1 hPa | - | - | - | - |
| 1777636440 | 20.56° C | 37% | 1025.3 hPa | - | - | - | - |
| 1777635540 | 20.56° C | 37% | 1025.4 hPa | - | - | - | - |
| 1777634640 | 19.44° C | 37% | 1025.6 hPa | - | - | - | - |
| 1777633740 | 19.44° C | 36% | 1025.9 hPa | - | - | - | - |
| 1777632840 | 18.33° C | 37% | 1025.9 hPa | - | - | - | - |
| 1777631940 | 20° C | 39% | 1025.9 hPa | - | - | - | - |
| 1777631040 | 19.44° C | 39% | 1026 hPa | - | - | - | - |
| 1777630140 | 18.33° C | 38% | 1026.1 hPa | - | - | - | - |
| 1777629240 | 17.22° C | 38% | 1026.2 hPa | - | - | - | - |
| 1777628340 | 17.78° C | 39% | 1026.3 hPa | - | - | - | - |
| 1777627440 | 16.67° C | 39% | 1026.5 hPa | - | - | - | - |
| 1777626539 | 16.67° C | 41% | 1026.4 hPa | - | - | - | - |
| 1777625639 | 15.56° C | 40% | 1026.5 hPa | - | - | - | - |
| 1777624739 | 15.56° C | 41% | 1026.5 hPa | - | - | - | - |
| 1777623839 | 14.44° C | 42% | 1026.5 hPa | - | - | - | - |
| 1777622939 | 13.33° C | 42% | 1026.5 hPa | - | - | - | - |
* Rain since midnight (hover to see other rain measurements)
** Current wind speed in m/s (hover to see current wind gust speed)